[[{"header":{"parameterUnit":"m.s-1","parameterCategory":2,"la1":30.2991,"la2":30.254,"lo1":-89.0895,"lo2":-89.0444,"dy":0.0017,"dx":0.0017,"nx":28,"ny":28,"refTime":"2023-10-18T21:00:00:Z","depth":"0","parameterNumber":2,"parameterNumberName":"U-component_of_CURRENTS"},"data":[0,0,0,0,0,0,0,0,0,0,0,0,0,0,0,0,0,0,0,0,0,0,0,0,0,0,0,0,0,0,0,0,0,0,0,0,0,0,0,0,0,0,0,0,0,0,0,0,0,0,0,0,0,0,0,0,0,0,0.2859,0.2859,0,0.2838,0.2838,0.2838,0.2792,0.2792,0.2791,0.279,0.2677,0.2675,0.2673,0,0,0,0,0,0,0,0,0,0,0,0,0,0.2943,0.2941,0.2859,0.2859,0.2858,0.2839,0.2838,0.2838,0.2793,0.2792,0.2791,0.279,0.2678,0.2675,0.2673,0,0,0,0,0,0,0,0,0,0,0,0,0,0.2911,0.294,0.2859,0.2835,0.2833,0.2839,0.2838,0.2837,0.2793,0.2792,0.279,0.2789,0.2679,0.2676,0.2672,0.2674,0,0,0.2662,0.266,0,0,0,0,0,0,0,0,0.2913,0.2907,0.2838,0.2837,0.2834,0.2818,0.2827,0.2779,0.2793,0.2806,0.279,0.2789,0.2718,0.2711,0.2709,0.2668,0.2664,0.2661,0.2659,0.2658,0.2657,0,0,0,0,0,0,0,0.2915,0.2909,0.2849,0.2839,0.2836,0.2855,0.2848,0.2818,0.2765,0.2805,0.2802,0.2803,0.2716,0.2712,0.2705,0.2662,0.2662,0.2658,0.2656,0.2655,0.265,0.2652,0,0,0,0,0,0,0.2917,0.291,0.2849,0.2848,0.2874,0.2854,0.2846,0.2823,0.2768,0.2759,0.2804,0.2801,0.2719,0.271,0.2701,0.275,0.2658,0.2655,0.2653,0.2648,0.2651,0.2653,0,0,0,0,0,0,0.2919,0.2911,0.285,0.2882,0.2876,0.2853,0.2828,0.2823,0.2825,0.2769,0.2758,0.2811,0.2717,0.2706,0.2702,0.2743,0.2653,0.265,0.2646,0.2649,0.2652,0.2814,0,0,0,0,0,0,0.2921,0.2911,0.291,0.2881,0.2874,0.2875,0.2829,0.2824,0.2828,0.2824,0.2771,0.2759,0.2716,0.2708,0.2699,0.2736,0.2647,0.2644,0.2647,0.2651,0.2806,0.2822,0.2835,0,0,0,0,0,0.2924,0.2925,0.2909,0.2903,0.2866,0.2877,0.2876,0.2855,0.283,0.2849,0.2817,0.2761,0.2724,0.2708,0.2696,0.2733,0.2642,0.2646,0.2651,0.2799,0.2819,0.2835,0,0,0,0,0,0,0.2957,0.2919,0.2902,0.2889,0.2894,0.287,0.2884,0.2868,0.2858,0.2848,0.2788,0.2776,0.2793,0.2739,0.2722,0.2742,0.2673,0.2675,0.279,0.2807,0.2822,0.2832,0.2644,0,0,0,0,0,0.2965,0.2958,0.2933,0.2931,0.2929,0.2909,0.2913,0.29,0.2883,0.2878,0.2848,0.2813,0.2803,0.2786,0.2768,0.2772,0.2776,0.2787,0.2802,0.2815,0.2816,0.2898,0.2922,0.2667,0.2667,0.2667,0,0,0.2979,0.296,0.2956,0.2941,0.2934,0.2951,0.2908,0.292,0.2943,0.2866,0.289,0.2869,0.2819,0.284,0.284,0.2797,0.2891,0.282,0.2832,0.2826,0.2905,0.2931,0.2953,0.267,0.267,0.2669,0,0,0.3017,0.2985,0.2997,0.3001,0.3001,0.2994,0.3002,0.2992,0.2995,0.3014,0.2978,0.2991,0.2951,0.2948,0.2932,0.3013,0.2978,0.2995,0.3066,0.3148,0.317,0.3189,0.3243,0.3266,0.299,0.2991,0.2991,0,0.3038,0.3035,0.3012,0.3028,0.3035,0.3016,0.3041,0.3052,0.3051,0.3058,0.3037,0.3032,0.3007,0.3035,0.3074,0.3049,0.3078,0.3007,0.3171,0.319,0.3207,0.3257,0.3281,0.2999,0.2998,0.2997,0.2996,0,0.3089,0.3085,0.3097,0.3104,0.3119,0.3137,0.3141,0.3164,0.3159,0.3162,0.3196,0.3183,0.3168,0.3181,0.3152,0.3252,0.3229,0.3197,0.3134,0.3244,0.3288,0.331,0.3011,0.3008,0.3005,0.3003,0,0,0.3117,0.3129,0.313,0.3139,0.3153,0.3167,0.3212,0.324,0.3265,0.3282,0.332,0.3341,0.3324,0.3307,0.3287,0.3362,0.3532,0.3339,0.334,0.3407,0.3709,0.3513,0.3517,0.3541,0.3545,0.3549,0.3698,0,0.316,0.3199,0.3198,0.3241,0.3252,0.3251,0.3295,0.3321,0.3337,0.3378,0.3382,0.3408,0.3373,0.3379,0.3455,0.3507,0.3593,0.3493,0.3578,0.358,0.3406,0.3537,0.3279,0.3374,0.3718,0.3722,0.3724,0,0.3199,0.3217,0.3262,0.3285,0.3292,0.3324,0.3367,0.3404,0.345,0.3461,0.3484,0.3481,0.3565,0.3533,0.3684,0.3624,0.3685,0.3732,0.3738,0.3507,0.3423,0.3315,0.3399,0.3278,0.3757,0.3754,0.3752,0,0.3223,0.3252,0.3289,0.3298,0.3334,0.3358,0.3383,0.3425,0.3455,0.3514,0.3537,0.3606,0.3644,0.3744,0.3798,0.3772,0.3972,0.3938,0.3821,0.3807,0.3574,0.353,0.3553,0.4082,0.4082,0.4081,0.4081,0,0.3256,0.3284,0.3298,0.332,0.3366,0.3376,0.3432,0.3462,0.3507,0.3549,0.3574,0.3616,0.371,0.3797,0.3859,0.3885,0.4016,0.3858,0.3843,0.3619,0.3579,0.3443,0.3425,0.4087,0.4086,0.4085,0.4084,0,0.3289,0.3297,0.3336,0.3369,0.3378,0.3412,0.3452,0.3491,0.3523,0.3583,0.3603,0.367,0.3765,0.3832,0.3995,0.393,0.3861,0.3981,0.3685,0.3629,0.3329,0.3327,0.3241,0.3169,0.3872,0.3868,0.3865,0,0.3312,0.3331,0.3371,0.3389,0.3408,0.3444,0.3474,0.3504,0.3534,0.3603,0.3637,0.3723,0.3776,0.3878,0.379,0.3824,0.3772,0.3576,0.3462,0.329,0.3284,0.3203,0.3146,0.3247,0.3239,0.3232,0.3227,0,0.3354,0.3369,0.3408,0.3435,0.3463,0.349,0.3522,0.3542,0.3577,0.3606,0.3645,0.3694,0.3702,0.3565,0.3531,0.3511,0.3332,0.3436,0.3365,0.2877,0.2691,0.2617,0.3171,0.3169,0.3174,0.3179,0.3182,0.3184,0.3387,0.3417,0.3447,0.3472,0.3501,0.351,0.3497,0.3519,0.3534,0.3491,0.359,0.3518,0.3341,0.3223,0.3188,0.2815,0.2958,0.266,0.2707,0.2667,0.2473,0.2863,0.2759,0.2763,0.2766,0.2768,0.277,0,0.3399,0.3431,0.3468,0.3482,0.3484,0.3497,0.3502,0.3432,0.3394,0.3342,0.3314,0.3015,0.2816,0.2645,0.225,0.2094,0.2047,0.2029,0.1893,0.1907,0.2335,0.2175,0.1807,0.1807,0.1807,0.1807,0.1807,0.1808,0.3408,0.344,0.3448,0.3432,0.3433,0.3356,0.3328,0.3228,0.3132,0.2845,0.2594,0.2507,0.227,0.1923,0.1614,0.1579,0.1522,0.1374,0.1527,0.1833,0.1896,0.1956,0.18,0.1359,0.1359,0.0941,0.0938,0.0936]},{"header":{"parameterUnit":"m.s-1","parameterCategory":2,"la1":30.2991,"la2":30.254,"lo1":-89.0895,"lo2":-89.0444,"dy":0.0017,"dx":0.0017,"nx":28,"ny":28,"refTime":"2023-10-18T21:00:00:Z","depth":"0","parameterNumber":3,"parameterNumberName":"V-component_of_CURRENTS"},"data":[0,0,0,0,0,0,0,0,0,0,0,0,0,0,0,0,0,0,0,0,0,0,0,0,0,0,0,0,0,0,0,0,0,0,0,0,0,0,0,0,0,0,0,0,0,0,0,0,0,0,0,0,0,0,0,0,0,0,-0.0093,-0.0093,0,-0.0105,-0.0105,-0.0106,-0.0121,-0.0121,-0.0121,-0.0121,-0.0138,-0.0138,-0.0139,0,0,0,0,0,0,0,0,0,0,0,0,0,-0.0096,-0.0096,-0.0093,-0.0093,-0.0093,-0.0105,-0.0105,-0.0106,-0.0121,-0.0121,-0.0121,-0.0121,-0.0138,-0.0138,-0.0139,0,0,0,0,0,0,0,0,0,0,0,0,0,-0.0101,-0.0095,-0.0093,-0.0101,-0.0102,-0.0105,-0.0105,-0.0106,-0.0121,-0.0121,-0.0121,-0.0121,-0.0138,-0.0138,-0.0139,-0.0137,0,0,-0.014,-0.014,0,0,0,0,0,0,0,0,-0.01,-0.0101,-0.01,-0.0101,-0.0102,-0.0111,-0.0112,-0.0116,-0.0121,-0.0115,-0.0121,-0.0122,-0.0128,-0.013,-0.0133,-0.0138,-0.0139,-0.014,-0.014,-0.0141,-0.0141,0,0,0,0,0,0,0,-0.01,-0.01,-0.0099,-0.01,-0.0101,-0.0109,-0.011,-0.0113,-0.0121,-0.0115,-0.0116,-0.0116,-0.0129,-0.0132,-0.0133,-0.0139,-0.014,-0.014,-0.0141,-0.0141,-0.0123,-0.0122,0,0,0,0,0,0,-0.0095,-0.01,-0.0099,-0.0099,-0.01,-0.0108,-0.0109,-0.0109,-0.0121,-0.0123,-0.0116,-0.0116,-0.0132,-0.0133,-0.0134,-0.0117,-0.0141,-0.0141,-0.0141,-0.0124,-0.0123,-0.0122,0,0,0,0,0,0,-0.0095,-0.0095,-0.0098,-0.0099,-0.01,-0.0108,-0.0107,-0.0109,-0.0111,-0.0121,-0.0123,-0.0116,-0.0132,-0.0133,-0.0132,-0.0119,-0.0141,-0.0142,-0.0125,-0.0124,-0.0123,-0.0094,0,0,0,0,0,0,-0.0095,-0.0095,-0.0095,-0.0099,-0.01,-0.0094,-0.0107,-0.0109,-0.011,-0.0111,-0.0122,-0.0124,-0.0132,-0.0131,-0.0133,-0.012,-0.0142,-0.0126,-0.0124,-0.0123,-0.0096,-0.0092,-0.0089,0,0,0,0,0,-0.0095,-0.0094,-0.0095,-0.0095,-0.0099,-0.0093,-0.0094,-0.0102,-0.011,-0.0106,-0.0114,-0.0124,-0.0123,-0.0131,-0.0133,-0.012,-0.0126,-0.0125,-0.0123,-0.0097,-0.0093,-0.0089,0,0,0,0,0,0,-0.0099,-0.0096,-0.0097,-0.0096,-0.0091,-0.0095,-0.0094,-0.0099,-0.0103,-0.0105,-0.0118,-0.012,-0.0113,-0.0119,-0.0128,-0.0109,-0.0125,-0.0123,-0.0104,-0.01,-0.0097,-0.0092,-0.0142,0,0,0,0,0,-0.0098,-0.0096,-0.0091,-0.0091,-0.0086,-0.009,-0.009,-0.0091,-0.0094,-0.0096,-0.0102,-0.0106,-0.0107,-0.0107,-0.0108,-0.01,-0.007,-0.0091,-0.0087,-0.0084,-0.008,-0.0003,0.0008,-0.0117,-0.0117,-0.0117,0,0,-0.01,-0.0098,-0.0097,-0.0091,-0.0089,-0.0078,-0.0091,-0.0084,-0.0077,-0.0097,-0.009,-0.0094,-0.0102,-0.0092,-0.0089,-0.0097,-0.0033,-0.0082,-0.008,-0.0077,-0.0,0.0012,0.0023,-0.0116,-0.0116,-0.0116,0,0,-0.0097,-0.0097,-0.0091,-0.0081,-0.0072,-0.007,-0.0066,-0.0062,-0.0063,-0.0054,-0.0066,-0.006,-0.0063,-0.0062,-0.0064,-0.004,-0.0016,-0.0041,-0.0019,0.0056,0.0067,0.0077,0.0133,0.0148,-0.0039,-0.0039,-0.0039,0,-0.0101,-0.0092,-0.0088,-0.0074,-0.0067,-0.0064,-0.0051,-0.0047,-0.0044,-0.0041,-0.0046,-0.0035,-0.0046,-0.003,-0.0027,-0.0032,0.0012,-0.0037,0.0062,0.0073,0.0083,0.0137,0.0154,-0.0037,-0.0037,-0.0038,-0.0038,0,-0.0089,-0.0079,-0.0073,-0.0054,-0.0043,-0.0032,-0.002,-0.0011,-0.001,-0.0006,0.0013,0.001,0.0016,0.0015,-0.0004,0.0053,0.0061,0.006,0.0054,0.0098,0.0152,0.0168,-0.0035,-0.0036,-0.0036,-0.0036,0,0,-0.0104,-0.0072,-0.0069,-0.0057,-0.0032,-0.0022,-0.0003,0.0012,0.0032,0.004,0.007,0.0061,0.0063,0.0062,0.0053,0.0106,0.0203,0.0111,0.0114,0.0169,0.0371,0.0323,0.0336,0.0231,0.0234,0.0236,0.038,0,-0.0098,-0.0073,-0.0056,-0.003,-0.0016,0.0001,0.0021,0.0039,0.0058,0.0092,0.0096,0.0123,0.0081,0.0098,0.014,0.0196,0.0248,0.0164,0.0316,0.032,0.0276,0.0354,0.0337,0.0459,0.0396,0.0399,0.0401,0,-0.0095,-0.0077,-0.0054,-0.0018,-0.0009,0.0011,0.0049,0.0071,0.0115,0.0135,0.0163,0.0177,0.0229,0.0204,0.0323,0.0277,0.032,0.0362,0.0369,0.0325,0.0303,0.0405,0.0491,0.0409,0.0426,0.0424,0.0422,0,-0.0116,-0.0078,-0.0062,-0.0049,-0.0005,0.001,0.0035,0.0078,0.0121,0.0174,0.0231,0.027,0.0332,0.039,0.0444,0.0407,0.0597,0.0559,0.0553,0.055,0.0564,0.0556,0.0591,0.0656,0.0655,0.0655,0.0655,0,-0.0122,-0.0107,-0.0069,-0.0058,-0.0015,0.0006,0.0064,0.0093,0.0166,0.0249,0.0256,0.0351,0.0392,0.0488,0.0506,0.0589,0.0651,0.0578,0.0596,0.057,0.0561,0.0509,0.0462,0.066,0.0659,0.0658,0.0657,0,-0.0135,-0.0122,-0.009,-0.0044,-0.0022,0.001,0.0102,0.016,0.0211,0.0331,0.0361,0.0459,0.0588,0.0621,0.0743,0.0689,0.0723,0.0765,0.0713,0.072,0.0581,0.0537,0.0621,0.0591,0.0779,0.0779,0.0779,0,-0.0134,-0.0124,-0.0067,-0.0024,0.0004,0.0062,0.0126,0.018,0.026,0.0413,0.0492,0.0628,0.0762,0.0888,0.0842,0.0874,0.0792,0.0808,0.0708,0.0589,0.0554,0.0527,0.0493,0.075,0.075,0.075,0.0749,0,-0.0106,-0.0093,-0.0053,0.0026,0.0091,0.017,0.0259,0.0324,0.0418,0.0541,0.0722,0.084,0.0938,0.0973,0.0947,0.0927,0.0728,0.0797,0.072,0.057,0.0506,0.0479,0.062,0.0747,0.0747,0.0747,0.0747,0.0747,-0.0064,-0.0025,0.0033,0.0105,0.0182,0.0281,0.0353,0.0476,0.0621,0.0831,0.0903,0.1125,0.1066,0.1051,0.0965,0.073,0.0755,0.0638,0.061,0.0605,0.0521,0.0627,0.0729,0.0729,0.0729,0.0729,0.0729,0,0.0011,0.0051,0.0122,0.0211,0.0297,0.0321,0.0457,0.0557,0.0748,0.0983,0.1167,0.129,0.1208,0.105,0.0746,0.0572,0.0508,0.0477,0.0442,0.0427,0.0577,0.0513,0.0516,0.0516,0.0516,0.0516,0.0516,0.0516,0.0067,0.0138,0.0161,0.0297,0.036,0.0482,0.0556,0.0729,0.0909,0.121,0.1386,0.1514,0.1366,0.0845,0.0495,0.0416,0.0303,0.028,0.0239,0.0318,0.033,0.0342,0.027,0.0222,0.0222,0.0098,0.0096,0.0095]}],[{"header":{"parameterUnit":"m.s-1","parameterCategory":2,"la1":30.2991,"la2":30.254,"lo1":-89.0895,"lo2":-89.0444,"dy":0.0017,"dx":0.0017,"nx":28,"ny":28,"refTime":"2023-10-18T21:00:00:Z","depth":"2","parameterNumber":2,"parameterNumberName":"U-component_of_CURRENTS"},"data":[0,0,0,0,0,0,0,0,0,0,0,0,0,0,0,0,0,0,0,0,0,0,0,0,0,0,0,0,0,0,0,0,0,0,0,0,0,0,0,0,0,0,0,0,0,0,0,0,0,0,0,0,0,0,0,0,0,0,0.1584,0.1583,0,0.153,0.1529,0.1529,0.1584,0.1586,0.1588,0.159,0.1649,0.1649,0.1648,0,0,0,0,0,0,0,0,0,0,0,0,0,0.1634,0.1634,0.1584,0.1583,0.1582,0.153,0.1529,0.1528,0.1583,0.1586,0.1588,0.1591,0.1649,0.1649,0.1648,0,0,0,0,0,0,0,0,0,0,0,0,0,0.1601,0.1634,0.1584,0.1603,0.1604,0.153,0.1529,0.1528,0.1583,0.1586,0.1589,0.1592,0.1649,0.1649,0.1648,0.1583,0,0,0.1646,0.1646,0,0,0,0,0,0,0,0,0.1603,0.1599,0.1601,0.1601,0.1602,0.1566,0.1568,0.1552,0.1582,0.1592,0.159,0.1593,0.1629,0.163,0.1613,0.1585,0.1588,0.1646,0.1646,0.1646,0.1646,0,0,0,0,0,0,0,0.1605,0.1601,0.1563,0.16,0.1601,0.1579,0.1579,0.1565,0.1596,0.1591,0.1595,0.1586,0.1631,0.1613,0.1615,0.1589,0.1646,0.1646,0.1646,0.1645,0.1702,0.1704,0,0,0,0,0,0,0.1611,0.1603,0.1565,0.1562,0.1609,0.1576,0.1576,0.1575,0.1594,0.1599,0.1584,0.1589,0.1612,0.1615,0.1617,0.1682,0.1646,0.1645,0.1645,0.1701,0.1703,0.1705,0,0,0,0,0,0,0.1613,0.1609,0.1567,0.158,0.1574,0.1573,0.1571,0.1572,0.1591,0.1587,0.1595,0.1606,0.1615,0.1618,0.1665,0.168,0.1645,0.1645,0.1698,0.1701,0.1704,0.1721,0,0,0,0,0,0,0.1614,0.161,0.1617,0.1581,0.1573,0.1571,0.1568,0.1569,0.1578,0.1586,0.1607,0.1614,0.1617,0.1666,0.1664,0.1678,0.1644,0.1696,0.17,0.1703,0.1718,0.1724,0.1729,0,0,0,0,0,0.1617,0.1609,0.1618,0.1614,0.1582,0.1572,0.1568,0.1576,0.1577,0.1601,0.1624,0.1615,0.1687,0.1667,0.1664,0.1678,0.1695,0.1699,0.1703,0.1715,0.1723,0.1729,0,0,0,0,0,0,0.1632,0.1612,0.1622,0.1611,0.1617,0.1583,0.1585,0.1585,0.1611,0.1625,0.1628,0.1637,0.1697,0.1683,0.166,0.1711,0.1692,0.1696,0.1702,0.1709,0.1714,0.1743,0.1644,0,0,0,0,0,0.1637,0.1629,0.1622,0.1615,0.162,0.1606,0.1601,0.1611,0.1618,0.1632,0.1642,0.1663,0.1699,0.1704,0.1737,0.1734,0.1767,0.1749,0.1754,0.1758,0.1785,0.1891,0.1909,0.1718,0.1718,0.1718,0,0,0.1634,0.1624,0.1619,0.1619,0.1615,0.162,0.1613,0.1618,0.1629,0.1632,0.1658,0.1693,0.1714,0.1748,0.1768,0.1738,0.1818,0.1764,0.1767,0.1791,0.1898,0.1916,0.1933,0.1721,0.1721,0.172,0,0,0.1617,0.1628,0.162,0.1631,0.1638,0.1637,0.1649,0.1641,0.1659,0.1686,0.1708,0.1753,0.1774,0.1793,0.1804,0.185,0.1867,0.1861,0.1878,0.1981,0.1998,0.2013,0.2022,0.2038,0.1835,0.1835,0.1835,0,0.1627,0.1617,0.1619,0.1623,0.1637,0.1651,0.1666,0.1669,0.1681,0.1703,0.1717,0.1793,0.1797,0.1846,0.1871,0.186,0.191,0.1843,0.1988,0.2005,0.202,0.2027,0.2044,0.1836,0.1836,0.1836,0.1836,0,0.1607,0.1614,0.1612,0.163,0.1647,0.1664,0.1681,0.1704,0.1728,0.1742,0.1824,0.1846,0.1898,0.1895,0.1895,0.1992,0.1986,0.2005,0.1969,0.2041,0.2041,0.206,0.1838,0.1837,0.1837,0.1837,0,0,0.1599,0.1604,0.161,0.1631,0.1664,0.1677,0.1704,0.1747,0.1788,0.1818,0.1892,0.1928,0.1963,0.1982,0.1986,0.2049,0.2159,0.2075,0.208,0.2077,0.2351,0.2202,0.2206,0.2232,0.2236,0.224,0.2286,0,0.1601,0.1617,0.162,0.1652,0.1669,0.1705,0.1732,0.1772,0.1829,0.1904,0.1943,0.2036,0.1986,0.2047,0.2096,0.2169,0.2221,0.2142,0.229,0.2292,0.2148,0.2228,0.2022,0.2037,0.2303,0.2306,0.2309,0,0.1579,0.1605,0.1643,0.1681,0.1696,0.1723,0.1812,0.1845,0.1938,0.1993,0.2075,0.2138,0.2207,0.2205,0.2312,0.2278,0.233,0.2369,0.2372,0.2252,0.218,0.2022,0.206,0.2339,0.2337,0.2334,0.2332,0,0.1581,0.1608,0.1654,0.1672,0.1727,0.176,0.18,0.188,0.1944,0.209,0.217,0.2257,0.2328,0.2421,0.2443,0.243,0.2583,0.2562,0.2461,0.2447,0.2307,0.2272,0.2703,0.2703,0.2703,0.2703,0.2703,0,0.1577,0.1608,0.1662,0.1699,0.1757,0.1788,0.1884,0.1932,0.2055,0.2141,0.2231,0.2304,0.2414,0.2485,0.2512,0.2505,0.2625,0.2488,0.2478,0.2296,0.2262,0.2565,0.2548,0.2705,0.2704,0.2704,0.2704,0,0.1567,0.1602,0.1657,0.1737,0.1761,0.1814,0.1926,0.2001,0.21,0.2228,0.2294,0.2388,0.2444,0.2499,0.263,0.2561,0.2605,0.2591,0.2312,0.2267,0.2374,0.2358,0.2474,0.247,0.2466,0.2463,0.2461,0,0.1561,0.1591,0.1695,0.175,0.1795,0.1878,0.1939,0.203,0.2114,0.224,0.2298,0.24,0.2401,0.2455,0.243,0.2432,0.254,0.2236,0.2167,0.2387,0.2366,0.2355,0.2344,0.1965,0.1958,0.1953,0.1949,0,0.1581,0.1632,0.1713,0.1792,0.1866,0.1922,0.2009,0.2061,0.2162,0.2219,0.225,0.2263,0.2282,0.2153,0.2156,0.2133,0.2206,0.2124,0.2507,0.2036,0.1907,0.1884,0.1892,0.1902,0.1907,0.191,0.1913,0.1915,0.163,0.167,0.177,0.1832,0.1909,0.1924,0.1913,0.1982,0.2015,0.2016,0.2105,0.2013,0.2001,0.1851,0.1795,0.1759,0.1916,0.1827,0.1845,0.1868,0.1783,0.1653,0.158,0.1583,0.1585,0.1587,0.1589,0,0.1639,0.17,0.1787,0.1824,0.1833,0.1897,0.1925,0.1859,0.1793,0.182,0.1785,0.1574,0.1471,0.1488,0.135,0.1325,0.1337,0.127,0.1282,0.1327,0.1368,0.126,0.0918,0.0916,0.0914,0.0913,0,0,0.1673,0.1717,0.1728,0.1712,0.1746,0.1693,0.1668,0.1558,0.1518,0.1386,0.1312,0.1383,0.1416,0.1149,0.1104,0.0991,0.1155,0.0942,0.1478,0.1537,0.1576,0.1683,0.1566,0,0,0,0,0]},{"header":{"parameterUnit":"m.s-1","parameterCategory":2,"la1":30.2991,"la2":30.254,"lo1":-89.0895,"lo2":-89.0444,"dy":0.0017,"dx":0.0017,"nx":28,"ny":28,"refTime":"2023-10-18T21:00:00:Z","depth":"2","parameterNumber":3,"parameterNumberName":"V-component_of_CURRENTS"},"data":[0,0,0,0,0,0,0,0,0,0,0,0,0,0,0,0,0,0,0,0,0,0,0,0,0,0,0,0,0,0,0,0,0,0,0,0,0,0,0,0,0,0,0,0,0,0,0,0,0,0,0,0,0,0,0,0,0,0,0.0126,0.0126,0,0.0136,0.0136,0.0136,0.0114,0.0113,0.0113,0.0112,0.007,0.0069,0.0068,0,0,0,0,0,0,0,0,0,0,0,0,0,0.0105,0.0105,0.0126,0.0126,0.0127,0.0136,0.0136,0.0136,0.0114,0.0113,0.0113,0.0112,0.007,0.0069,0.0068,0,0,0,0,0,0,0,0,0,0,0,0,0,0.0113,0.0105,0.0126,0.0118,0.0118,0.0136,0.0136,0.0136,0.0114,0.0113,0.0112,0.0112,0.007,0.0069,0.0068,0.0078,0,0,0.0065,0.0065,0,0,0,0,0,0,0,0,0.0112,0.0113,0.0119,0.0119,0.0118,0.0125,0.0113,0.0115,0.0114,0.0113,0.0112,0.0111,0.0085,0.0083,0.0084,0.0076,0.0074,0.0065,0.0065,0.0064,0.0064,0,0,0,0,0,0,0,0.0112,0.0113,0.0128,0.012,0.0119,0.012,0.012,0.0114,0.0101,0.0113,0.0112,0.0117,0.0084,0.0085,0.0083,0.0074,0.0065,0.0064,0.0064,0.0063,0.0043,0.0043,0,0,0,0,0,0,0.0115,0.0112,0.0128,0.0129,0.0116,0.0122,0.0121,0.0122,0.0102,0.0099,0.0118,0.0116,0.0087,0.0084,0.0081,0.0079,0.0064,0.0063,0.0063,0.0043,0.0043,0.0043,0,0,0,0,0,0,0.0114,0.0116,0.0127,0.0122,0.0124,0.0123,0.0124,0.0123,0.0118,0.0106,0.0102,0.0114,0.0087,0.0083,0.0067,0.0078,0.0063,0.0062,0.0043,0.0043,0.0043,0.0083,0,0,0,0,0,0,0.0113,0.0115,0.0114,0.0123,0.0125,0.0134,0.0125,0.0123,0.0123,0.0121,0.0102,0.0097,0.0086,0.0068,0.0066,0.0076,0.0061,0.0042,0.0043,0.0043,0.0082,0.0084,0.0087,0,0,0,0,0,0.0112,0.0121,0.0114,0.0116,0.0124,0.0134,0.0135,0.013,0.0124,0.0123,0.0106,0.0098,0.0067,0.0067,0.0064,0.0075,0.0042,0.0043,0.0043,0.008,0.0084,0.0087,0,0,0,0,0,0,0.011,0.012,0.0112,0.0122,0.0124,0.0131,0.0136,0.0131,0.0119,0.0115,0.0098,0.0092,0.0081,0.0071,0.0072,0.0067,0.0054,0.0053,0.0083,0.0086,0.0089,0.0113,0.006,0,0,0,0,0,0.011,0.0118,0.0122,0.0128,0.0131,0.0131,0.0135,0.0132,0.0127,0.0121,0.0109,0.0095,0.0082,0.0077,0.0063,0.0064,0.0069,0.0068,0.007,0.0073,0.0089,0.0121,0.0129,0.0043,0.0043,0.0043,0,0,0.011,0.0118,0.012,0.0128,0.0131,0.0144,0.0131,0.0139,0.0149,0.0118,0.0123,0.0101,0.0082,0.0079,0.0074,0.0071,0.0093,0.0073,0.0075,0.0091,0.0122,0.0131,0.0138,0.0043,0.0043,0.0043,0,0,0.0126,0.0122,0.0136,0.0142,0.0151,0.0152,0.0154,0.0159,0.0157,0.0157,0.0137,0.0124,0.0107,0.0102,0.0095,0.0105,0.0102,0.0093,0.0134,0.0164,0.0172,0.0179,0.0172,0.0179,0.01,0.01,0.01,0,0.0125,0.0143,0.0141,0.016,0.0171,0.0157,0.0177,0.0178,0.0175,0.0187,0.0161,0.0155,0.0124,0.014,0.0131,0.0114,0.0119,0.0125,0.017,0.0177,0.0184,0.0176,0.0182,0.0102,0.0102,0.0102,0.0102,0,0.0155,0.0167,0.0179,0.0197,0.0207,0.022,0.0225,0.0232,0.0225,0.0231,0.024,0.0207,0.0213,0.0188,0.0156,0.0189,0.017,0.0167,0.0168,0.0196,0.0184,0.019,0.0105,0.0104,0.0104,0.0103,0,0,0.016,0.0192,0.0196,0.0218,0.0228,0.0247,0.0264,0.0288,0.0326,0.0304,0.0358,0.0303,0.0299,0.029,0.0258,0.0263,0.0285,0.0234,0.0234,0.0238,0.0331,0.0278,0.0279,0.0297,0.0299,0.03,0.0295,0,0.0181,0.0226,0.0234,0.0278,0.0304,0.0306,0.0335,0.0356,0.037,0.0419,0.0394,0.0423,0.0337,0.0351,0.0342,0.031,0.0307,0.0285,0.0295,0.0295,0.0255,0.0287,0.029,0.0283,0.0301,0.0302,0.0303,0,0.0213,0.024,0.0281,0.034,0.0353,0.0377,0.0439,0.0459,0.0511,0.0532,0.0555,0.0554,0.0553,0.049,0.0452,0.0445,0.0391,0.0353,0.0353,0.0301,0.0255,0.0263,0.0294,0.0313,0.0313,0.0312,0.0311,0,0.0231,0.0283,0.0319,0.0333,0.0385,0.0416,0.0443,0.0495,0.0548,0.0617,0.0689,0.0676,0.0703,0.0642,0.0535,0.0513,0.0498,0.0467,0.0365,0.0359,0.0363,0.0354,0.0458,0.0458,0.0458,0.0458,0.0458,0,0.0257,0.0293,0.0336,0.0353,0.0429,0.0449,0.0534,0.057,0.0655,0.0751,0.0753,0.0829,0.0747,0.0725,0.0604,0.0498,0.0554,0.0384,0.0368,0.037,0.0363,0.0394,0.0386,0.0458,0.0458,0.0458,0.0458,0,0.0279,0.0294,0.0349,0.0406,0.0437,0.0489,0.0597,0.0681,0.0739,0.0876,0.0915,0.0963,0.092,0.0814,0.0719,0.0601,0.0496,0.0442,0.0424,0.0406,0.0317,0.0311,0.0348,0.0347,0.0345,0.0344,0.0343,0,0.0297,0.0321,0.0387,0.0441,0.0472,0.0555,0.0641,0.0715,0.0821,0.095,0.1045,0.1053,0.1058,0.0886,0.0693,0.0501,0.0477,0.0381,0.0335,0.0331,0.0313,0.0309,0.0306,0.0344,0.0343,0.0343,0.0342,0,0.034,0.0352,0.0395,0.0496,0.0588,0.0701,0.0825,0.0923,0.103,0.1122,0.1221,0.122,0.1075,0.0881,0.0632,0.0498,0.0409,0.0358,0.0408,0.036,0.0324,0.0306,0.0304,0.0336,0.0336,0.0337,0.0337,0.0337,0.0379,0.0423,0.048,0.0581,0.0688,0.0846,0.0947,0.1076,0.1206,0.1327,0.1314,0.1264,0.1086,0.0726,0.0539,0.0341,0.0351,0.027,0.0274,0.0279,0.0268,0.0231,0.0221,0.0221,0.0221,0.0221,0.0221,0,0.045,0.0498,0.0582,0.0704,0.0831,0.0874,0.108,0.1161,0.1293,0.1332,0.1345,0.1115,0.092,0.0704,0.0407,0.0241,0.024,0.0182,0.0225,0.0233,0.0239,0.0228,0.0169,0.0168,0.0168,0.0167,0,0,0.0498,0.0584,0.0619,0.0812,0.0899,0.1073,0.1186,0.1265,0.1307,0.1295,0.1219,0.1158,0.0917,0.0688,0.0485,0.0324,0.031,0.0285,0.0344,0.0427,0.0435,0.0305,0.0297,0,0,0,0,0]}],[{"header":{"parameterUnit":"m.s-1","parameterCategory":2,"la1":30.2991,"la2":30.254,"lo1":-89.0895,"lo2":-89.0444,"dy":0.0017,"dx":0.0017,"nx":28,"ny":28,"refTime":"2023-10-18T21:00:00:Z","depth":"4","parameterNumber":2,"parameterNumberName":"U-component_of_CURRENTS"},"data":[0,0,0,0,0,0,0,0,0,0,0,0,0,0,0,0,0,0,0,0,0,0,0,0,0,0,0,0,0,0,0,0,0,0,0,0,0,0,0,0,0,0,0,0,0,0,0,0,0,0,0,0,0,0,0,0,0,0,0.0675,0.0676,0,0.0698,0.0698,0.0698,0.0726,0.0727,0.0727,0.0728,0.0787,0.0788,0.0789,0,0,0,0,0,0,0,0,0,0,0,0,0,0.0652,0.0652,0.0675,0.0676,0.0676,0.0698,0.0698,0.0698,0.0726,0.0727,0.0728,0.0728,0.0787,0.0788,0.0789,0,0,0,0,0,0,0,0,0,0,0,0,0,0.0665,0.0652,0.0675,0.0694,0.0696,0.0698,0.0698,0.0698,0.0726,0.0727,0.0728,0.0729,0.0786,0.0788,0.0789,0.0781,0,0,0.0794,0.0795,0,0,0,0,0,0,0,0,0.0664,0.0666,0.0691,0.0693,0.0695,0.0712,0.0711,0.0728,0.0726,0.0713,0.0728,0.0729,0.0766,0.0769,0.0768,0.0783,0.0786,0.0794,0.0795,0.0796,0.0796,0,0,0,0,0,0,0,0.0663,0.0665,0.0682,0.0691,0.0694,0.07,0.0703,0.0714,0.0733,0.0714,0.0716,0.0721,0.0767,0.0767,0.077,0.0787,0.0794,0.0796,0.0796,0.0797,0.088,0.0881,0,0,0,0,0,0,0.0663,0.0664,0.0682,0.0683,0.0683,0.07,0.0703,0.0704,0.0732,0.0738,0.0721,0.0723,0.0764,0.0768,0.0772,0.0805,0.0796,0.0797,0.0798,0.0879,0.088,0.0882,0,0,0,0,0,0,0.0662,0.0664,0.0681,0.0676,0.0679,0.0699,0.07,0.0704,0.0726,0.0737,0.0743,0.0742,0.0765,0.077,0.0795,0.0807,0.0798,0.0799,0.0877,0.0879,0.0881,0.0845,0,0,0,0,0,0,0.0662,0.0664,0.067,0.0676,0.0679,0.0692,0.07,0.0704,0.0727,0.073,0.0757,0.0762,0.0766,0.0793,0.0797,0.0808,0.08,0.0875,0.0878,0.088,0.0845,0.0846,0.0846,0,0,0,0,0,0.0661,0.0656,0.067,0.0673,0.0685,0.0692,0.0694,0.0711,0.0727,0.0735,0.0753,0.0762,0.0812,0.0794,0.0799,0.0811,0.0874,0.0877,0.088,0.0844,0.0845,0.0846,0,0,0,0,0,0,0.0655,0.0659,0.0674,0.0675,0.0691,0.0698,0.0706,0.0722,0.0741,0.0754,0.0766,0.0771,0.0804,0.0817,0.0798,0.0848,0.085,0.0854,0.0822,0.0823,0.0824,0.0851,0.0802,0,0,0,0,0,0.0656,0.0653,0.0668,0.0673,0.0681,0.0701,0.0709,0.0725,0.0741,0.0751,0.0767,0.0793,0.0816,0.0826,0.0849,0.0864,0.0892,0.0883,0.0884,0.0884,0.0913,0.0953,0.0959,0.0891,0.0891,0.0891,0,0,0.0657,0.066,0.0661,0.0672,0.0686,0.0692,0.0708,0.0729,0.0735,0.0755,0.0772,0.0799,0.0824,0.0844,0.086,0.0855,0.0915,0.0888,0.0888,0.0917,0.0956,0.0963,0.0968,0.0893,0.0893,0.0892,0,0,0.0649,0.0662,0.0657,0.0666,0.069,0.0701,0.0713,0.0733,0.0745,0.0772,0.0786,0.0823,0.0853,0.0865,0.0878,0.0903,0.0923,0.0914,0.0929,0.0965,0.0971,0.0976,0.0997,0.1005,0.0907,0.0907,0.0907,0,0.0654,0.0645,0.066,0.0657,0.0663,0.0706,0.0707,0.0723,0.0749,0.0769,0.0784,0.0856,0.0868,0.0894,0.0904,0.0904,0.0927,0.0911,0.0964,0.0971,0.0977,0.0997,0.1006,0.0905,0.0905,0.0906,0.0906,0,0.0636,0.0636,0.0635,0.0643,0.0655,0.0665,0.0689,0.0717,0.0754,0.0779,0.0836,0.0861,0.0912,0.0913,0.0916,0.0962,0.0964,0.096,0.0953,0.0981,0.1001,0.101,0.0903,0.0904,0.0904,0.0905,0,0,0.0618,0.0621,0.0622,0.0618,0.0647,0.0651,0.068,0.0715,0.0753,0.0799,0.0845,0.0887,0.0932,0.0952,0.0959,0.0988,0.1031,0.0995,0.0998,0.1002,0.1108,0.1021,0.1024,0.1032,0.1034,0.1036,0.1094,0,0.06,0.0584,0.0596,0.059,0.0582,0.0629,0.0656,0.0701,0.0756,0.0813,0.0868,0.0922,0.0932,0.0966,0.0999,0.104,0.1061,0.1016,0.1095,0.1098,0.1006,0.1034,0.1043,0.1102,0.1104,0.1106,0.1107,0,0.0562,0.0558,0.0547,0.056,0.0567,0.0584,0.0647,0.0678,0.0774,0.083,0.0909,0.0955,0.1023,0.1023,0.1116,0.1089,0.1107,0.1126,0.1128,0.1077,0.1031,0.1079,0.1125,0.1124,0.1122,0.1121,0.112,0,0.0508,0.0512,0.0501,0.0502,0.054,0.0563,0.0604,0.0693,0.0749,0.0849,0.0923,0.0999,0.1072,0.1113,0.1176,0.115,0.1273,0.1232,0.1165,0.1159,0.1233,0.1227,0.1288,0.1288,0.1288,0.1288,0.1288,0,0.0449,0.0436,0.0481,0.0469,0.0499,0.0535,0.0598,0.0662,0.0779,0.086,0.0936,0.1014,0.1106,0.1182,0.1201,0.1232,0.1297,0.1188,0.1176,0.1213,0.1205,0.1238,0.1231,0.129,0.129,0.1289,0.1289,0,0.0365,0.0394,0.0384,0.0434,0.0466,0.0487,0.0607,0.0653,0.0779,0.0891,0.0931,0.1067,0.1158,0.1225,0.1306,0.127,0.1292,0.1277,0.1327,0.1314,0.1139,0.1131,0.1193,0.119,0.1188,0.1187,0.1185,0,0.0319,0.0302,0.0358,0.0388,0.0413,0.0475,0.0527,0.0648,0.071,0.0912,0.0954,0.109,0.1161,0.1226,0.1281,0.1303,0.128,0.1271,0.119,0.1152,0.1134,0.1128,0.1123,0.1182,0.1182,0.1181,0.1181,0,0.0229,0.0254,0.026,0.0333,0.038,0.0434,0.0519,0.0569,0.0717,0.0834,0.0967,0.1029,0.1129,0.1183,0.1223,0.1228,0.1266,0.1249,0.1252,0.1175,0.1139,0.1123,0.1119,0.1173,0.1175,0.1175,0.1176,0,0.019,0.018,0.0219,0.0281,0.0338,0.0388,0.0436,0.0527,0.0618,0.0833,0.0872,0.1016,0.1132,0.1145,0.118,0.1186,0.1142,0.1078,0.1088,0.1096,0.1035,0.0973,0.0962,0,0,0,0,0,0.0162,0.0157,0.0182,0.0246,0.0291,0.0339,0.0434,0.0487,0.0624,0.0691,0.0795,0.0881,0.0965,0.1029,0.1012,0.1094,0.112,0.1063,0.1045,0.1135,0.1143,0.1077,0,0,0,0,0,0,0.015,0.0157,0.0159,0.0204,0.0243,0.0295,0.0346,0.0434,0.0488,0.0637,0.0689,0.0803,0.0891,0.0974,0.0992,0.1006,0.0967,0.1145,0.1142,0.113,0.1137,0.1144,0.1079,0,0,0,0,0]},{"header":{"parameterUnit":"m.s-1","parameterCategory":2,"la1":30.2991,"la2":30.254,"lo1":-89.0895,"lo2":-89.0444,"dy":0.0017,"dx":0.0017,"nx":28,"ny":28,"refTime":"2023-10-18T21:00:00:Z","depth":"4","parameterNumber":3,"parameterNumberName":"V-component_of_CURRENTS"},"data":[0,0,0,0,0,0,0,0,0,0,0,0,0,0,0,0,0,0,0,0,0,0,0,0,0,0,0,0,0,0,0,0,0,0,0,0,0,0,0,0,0,0,0,0,0,0,0,0,0,0,0,0,0,0,0,0,0,0,0.0192,0.0192,0,0.0196,0.0196,0.0196,0.0204,0.0204,0.0205,0.0205,0.0192,0.0192,0.0191,0,0,0,0,0,0,0,0,0,0,0,0,0,0.0173,0.0173,0.0192,0.0192,0.0192,0.0196,0.0196,0.0196,0.0204,0.0204,0.0205,0.0205,0.0192,0.0192,0.0191,0,0,0,0,0,0,0,0,0,0,0,0,0,0.0179,0.0173,0.0192,0.0196,0.0197,0.0196,0.0196,0.0196,0.0204,0.0204,0.0205,0.0205,0.0192,0.0192,0.0191,0.0181,0,0,0.0189,0.0188,0,0,0,0,0,0,0,0,0.0179,0.018,0.0196,0.0196,0.0197,0.02,0.0184,0.019,0.0204,0.0201,0.0205,0.0205,0.0193,0.0192,0.0193,0.0181,0.018,0.0189,0.0188,0.0188,0.0188,0,0,0,0,0,0,0,0.0179,0.018,0.0193,0.0196,0.0196,0.0192,0.0193,0.0186,0.0195,0.0202,0.0202,0.0203,0.0193,0.0193,0.0192,0.018,0.0189,0.0188,0.0187,0.0187,0.0166,0.0166,0,0,0,0,0,0,0.0179,0.018,0.0193,0.0193,0.0188,0.0192,0.0194,0.0198,0.0196,0.0196,0.0202,0.0203,0.0194,0.0193,0.0192,0.0201,0.0188,0.0187,0.0187,0.0166,0.0166,0.0166,0,0,0,0,0,0,0.0178,0.018,0.0193,0.0186,0.0188,0.0192,0.0198,0.0198,0.0201,0.0197,0.0196,0.0204,0.0195,0.0193,0.0191,0.0199,0.0187,0.0186,0.0166,0.0166,0.0166,0.0205,0,0,0,0,0,0,0.0178,0.018,0.0183,0.0186,0.0188,0.0195,0.0197,0.0198,0.0201,0.0202,0.0198,0.0197,0.0195,0.0193,0.0191,0.0198,0.0185,0.0166,0.0166,0.0166,0.0204,0.0206,0.0208,0,0,0,0,0,0.0177,0.0185,0.0183,0.0185,0.0192,0.0195,0.0196,0.02,0.0201,0.0203,0.0203,0.0197,0.019,0.0192,0.019,0.0197,0.0166,0.0166,0.0166,0.0203,0.0206,0.0208,0,0,0,0,0,0,0.0177,0.0187,0.0185,0.0194,0.0194,0.0197,0.02,0.02,0.0201,0.0204,0.0198,0.0197,0.0198,0.0188,0.0191,0.0188,0.0176,0.0175,0.0205,0.0207,0.0209,0.0217,0.0185,0,0,0,0,0,0.0178,0.0188,0.0189,0.0196,0.0197,0.0197,0.0198,0.0201,0.0203,0.0204,0.02,0.0195,0.0193,0.0194,0.0187,0.0187,0.0162,0.0187,0.019,0.0192,0.0195,0.0158,0.0158,0.0165,0.0165,0.0165,0,0,0.0178,0.0186,0.019,0.0197,0.0197,0.0207,0.0199,0.0205,0.0217,0.0201,0.0213,0.0201,0.0193,0.0197,0.0196,0.0192,0.0176,0.0191,0.0194,0.0196,0.0158,0.0157,0.0157,0.0165,0.0165,0.0165,0,0,0.0188,0.0191,0.0202,0.0207,0.0212,0.0214,0.0216,0.0218,0.0223,0.0229,0.0222,0.0214,0.0211,0.0208,0.0206,0.0212,0.0186,0.0209,0.0232,0.0196,0.0195,0.0194,0.0162,0.0157,0.0213,0.0213,0.0213,0,0.0188,0.0208,0.0204,0.0217,0.023,0.0219,0.0238,0.0239,0.0241,0.0248,0.0238,0.0227,0.0217,0.0223,0.0229,0.0219,0.0194,0.0227,0.02,0.0198,0.0197,0.0163,0.0158,0.0215,0.0215,0.0215,0.0215,0,0.0206,0.0225,0.0233,0.0252,0.0259,0.0275,0.0277,0.0284,0.0285,0.0283,0.0282,0.0262,0.0256,0.0249,0.0246,0.0234,0.0218,0.0205,0.0196,0.0198,0.0163,0.0157,0.0218,0.0217,0.0217,0.0216,0,0,0.0212,0.0242,0.0248,0.0272,0.0286,0.0299,0.0317,0.0334,0.0347,0.0332,0.0338,0.0328,0.0306,0.0301,0.0283,0.0254,0.0221,0.0231,0.0228,0.0204,0.0142,0.015,0.0144,0.0203,0.0202,0.0201,0.0122,0,0.0234,0.0277,0.0285,0.0329,0.0354,0.036,0.0378,0.0388,0.0385,0.0381,0.0354,0.0345,0.0329,0.032,0.0291,0.0238,0.0207,0.0244,0.0139,0.0136,0.0147,0.0138,0.0199,0.0117,0.0116,0.0115,0.0114,0,0.0259,0.0289,0.0339,0.0387,0.0397,0.0419,0.0455,0.0468,0.0456,0.045,0.043,0.0393,0.0359,0.0331,0.0248,0.0273,0.0214,0.0166,0.0162,0.0152,0.0132,0.0113,0.0103,0.0104,0.0104,0.0105,0.0106,0,0.0287,0.0334,0.0383,0.0399,0.0438,0.0467,0.0488,0.0494,0.0511,0.0485,0.0478,0.0426,0.0397,0.0319,0.0232,0.0234,0.0125,0.0112,0.0062,0.0061,0.0061,0.0063,0.0042,0.0042,0.0042,0.0042,0.0042,0,0.0322,0.0362,0.0403,0.0433,0.0487,0.0502,0.0549,0.0556,0.0558,0.0567,0.0513,0.0495,0.039,0.0317,0.0233,0.0136,0.0125,0.0064,0.0041,0.0079,0.0084,0.0056,0.0059,0.0039,0.004,0.004,0.0041,0,0.0349,0.0376,0.0432,0.0484,0.0505,0.0543,0.0596,0.061,0.0618,0.0622,0.0612,0.0543,0.0451,0.0344,0.0209,0.0145,0.0042,0.0007,0.0058,0.004,-0.0001,0.0004,-0.0061,-0.0061,-0.0061,-0.0062,-0.0062,0,0.0363,0.0395,0.0467,0.0495,0.0525,0.0582,0.0606,0.0637,0.0652,0.0651,0.0642,0.0563,0.0504,0.0327,0.0211,0.0051,0.003,-0.003,-0.0017,0.0004,-0.0012,-0.0006,0.0,-0.0062,-0.0062,-0.0063,-0.0063,0,0.038,0.0408,0.0453,0.0518,0.0557,0.0606,0.0652,0.0673,0.0694,0.0699,0.0666,0.0575,0.047,0.0332,0.021,0.0094,0.0006,-0.0034,-0.0034,-0.0022,0.0001,-0.0013,-0.0007,-0.0064,-0.0064,-0.0064,-0.0063,0,0.0383,0.0415,0.047,0.0529,0.0575,0.0615,0.0647,0.0668,0.0693,0.0697,0.0681,0.0577,0.0519,0.0353,0.0238,0.013,0.01,0.0057,0.0051,0.0051,0.0111,0.0158,0.0122,0,0,0,0,0,0.0377,0.0415,0.047,0.0532,0.0576,0.0617,0.0661,0.0683,0.0708,0.0689,0.0698,0.0604,0.0444,0.0369,0.0263,0.0219,0.0071,0.0089,0.0016,-0.007,-0.0069,-0.0016,0,0,0,0,0,0,0.0372,0.0423,0.0467,0.052,0.0565,0.0615,0.0652,0.067,0.0672,0.0682,0.06,0.0574,0.0417,0.0512,0.0262,0.0229,0.0166,0.002,0.0017,-0.0071,-0.007,-0.0069,-0.0014,0,0,0,0,0]}]]